New Delhi, India

2:23 AM IST on August 22, 2017 (GMT +0530)
Indira Gandhi International

Weather History for VIDP - April, 2013

Change the Weather History Date:

Saturday, April 27, 2013

  Actual Average Record
Temperature  
Mean Temperature 90 °F -  
Max Temperature 100 °F 101 °F 111 °F (2007)
Min Temperature 80 °F 78 °F 64 °F (2012)
Cooling Degree Days 25    
Growing Degree Days 40 (Base 50)    
Moisture  
Dew Point 52 °F    
Average Humidity 29    
Maximum Humidity 45    
Minimum Humidity 15    
Precipitation  
Precipitation 0.00 in - - ()
Sea Level Pressure  
Sea Level Pressure 29.79 in    
Wind  
Wind Speed 7 mph ()    
Max Wind Speed 15 mph    
Max Gust Speed 24 mph    
Visibility 2.1 miles    
Events      
Averages and records for this station are not official NWS values.
T = Trace of Precipitation, MM = Missing Value Source: Averaged Metar Reports

Daily Weather History Graph

Daily Weather History Graph

Search for Another Location

Airport or City:

Trip Planner

Search our weather history database for the weather conditions in past years. The results will help you decide how hot, cold, wet, or windy it might be!

Date:

Astronomy

Apr. 27, 2013 Rise Set
Actual Time 5:44 AM IST 6:54 PM IST
Civil Twilight 5:19 AM IST 7:19 PM IST
Nautical Twilight 4:50 AM IST 7:48 PM IST
Astronomical Twilight 4:20 AM IST 8:18 PM IST
Moon 8:45 PM IST (4/27) 6:44 AM IST (4/27)
Length of Visible Light 13h 59m
Length of Day
13h 09m
Full, 97% of the Moon is Illuminated
Apr 27
Full
May 2
Last Quarter
May 10
New
May 18
First Quarter
May 25
Full

Hourly Weather History & Observations

Time (IST) Temp. Heat Index Dew Point Humidity Pressure Visibility Wind Dir Wind Speed Gust Speed Precip Events Conditions
12:00 AM 86.0 °F 86.1 °F 60.8 °F 43% 29.83 in 2.2 mi NNE 3.5 mph - N/A   Haze
12:30 AM 84.2 °F 83.8 °F 59.0 °F 42% 29.83 in - NNE 3.5 mph - N/A   Haze
1:30 AM 82.4 °F 82.5 °F 59.0 °F 45% 29.83 in 1.6 mi Variable 3.5 mph - N/A   Haze
2:00 AM 82.4 °F 82.5 °F 59.0 °F 45% 29.80 in 1.4 mi NNW 4.6 mph - N/A   Haze
2:30 AM 82.4 °F 82.5 °F 59.0 °F 45% 29.80 in 1.3 mi North 4.6 mph - N/A   Haze
3:00 AM 82.4 °F 82.0 °F 57.2 °F 42% 29.80 in 1.3 mi North 4.6 mph - N/A   Haze
3:30 AM 80.6 °F 80.8 °F 57.2 °F 45% 29.80 in 1.3 mi NNE 4.6 mph - N/A   Haze
4:00 AM 80.6 °F 80.8 °F 57.2 °F 45% 29.80 in 1.3 mi NNE 4.6 mph - N/A   Haze
4:30 AM 80.6 °F 80.5 °F 55.4 °F 42% 29.80 in 1.6 mi North 5.8 mph - N/A   Haze
5:00 AM 80.6 °F 80.5 °F 55.4 °F 42% 29.80 in 1.6 mi North 4.6 mph - N/A   Haze
5:30 AM 80.6 °F 80.3 °F 53.6 °F 39% 29.80 in 1.7 mi North 5.8 mph - N/A   Haze
6:00 AM 80.6 °F 80.3 °F 53.6 °F 39% 29.80 in 1.7 mi North 5.8 mph - N/A   Haze
6:30 AM 80.6 °F 80.3 °F 53.6 °F 39% 29.83 in 1.7 mi West 4.6 mph - N/A   Haze
7:00 AM 82.4 °F 81.4 °F 53.6 °F 37% 29.83 in 1.7 mi WNW 3.5 mph - N/A   Haze
7:30 AM 82.4 °F 81.4 °F 53.6 °F 37% 29.83 in 1.7 mi NW 4.6 mph - N/A   Haze
8:30 AM 86.0 °F 84.2 °F 53.6 °F 33% 29.83 in 1.9 mi North 6.9 mph - N/A   Haze
9:00 AM 89.6 °F - 51.8 °F 27% 29.83 in 1.9 mi NNW 6.9 mph - N/A   Haze
9:30 AM 89.6 °F - 51.8 °F 27% 29.83 in 1.9 mi NW 6.9 mph - N/A   Haze
10:00 AM 91.4 °F - 51.8 °F 26% 29.86 in 2.2 mi NW 6.9 mph - N/A   Haze
10:30 AM 93.2 °F - 51.8 °F 24% 29.86 in 2.2 mi WNW 8.1 mph - N/A   Haze
11:00 AM 95.0 °F - 51.8 °F 23% 29.83 in 2.2 mi WNW 11.5 mph - N/A   Haze
11:30 AM 95.0 °F - 51.8 °F 23% 29.83 in 2.2 mi WNW 9.2 mph - N/A   Haze
12:00 PM 96.8 °F - 50.0 °F 20% 29.83 in 2.2 mi NW 11.5 mph - N/A   Haze
12:30 PM 96.8 °F - 50.0 °F 20% 29.80 in 2.5 mi NW 13.8 mph - N/A   Haze
1:00 PM 96.8 °F - 50.0 °F 20% 29.80 in 2.5 mi NW 13.8 mph - N/A   Haze
1:30 PM 98.6 °F - 50.0 °F 19% 29.80 in 2.5 mi WNW 15.0 mph - N/A   Haze
2:00 PM 100.4 °F - 50.0 °F 18% 29.77 in 2.5 mi NW 13.8 mph - N/A   Haze
2:30 PM 100.4 °F - 48.2 °F 17% 29.77 in 2.5 mi NW 15.0 mph - N/A   Haze
3:00 PM 98.6 °F - 46.4 °F 17% 29.74 in 2.5 mi WNW 15.0 mph - N/A   Haze
3:30 PM 98.6 °F - 48.2 °F 18% 29.74 in 2.5 mi NW 15.0 mph - N/A   Haze
4:00 PM 98.6 °F - 46.4 °F 17% 29.74 in 2.5 mi NW 15.0 mph - N/A   Haze
4:30 PM 98.6 °F - 46.4 °F 17% 29.74 in 2.5 mi NW 13.8 mph - N/A   Haze
5:00 PM 98.6 °F - 42.8 °F 15% 29.74 in 2.8 mi NW 15.0 mph - N/A   Haze
6:00 PM 96.8 °F - 42.8 °F 16% 29.74 in 3.1 mi NW 13.8 mph - N/A   Haze
6:30 PM 96.8 °F - 48.2 °F 19% 29.74 in 2.5 mi NW 11.5 mph 23.0 mph N/A   Haze
7:00 PM 96.8 °F - 48.2 °F 19% 29.74 in 2.2 mi NNW 11.5 mph 23.0 mph N/A   Haze
7:30 PM 91.4 °F - 50.0 °F 24% 29.77 in 2.2 mi NNW 11.5 mph 23.0 mph N/A   Mostly Cloudy
8:00 PM 89.6 °F - 50.0 °F 26% 29.77 in 2.2 mi NNW 9.2 mph 20.7 mph N/A   Mostly Cloudy
8:30 PM 91.4 °F - 50.0 °F 24% 29.77 in - NNW 12.7 mph 24.2 mph N/A   Mostly Cloudy
9:00 PM 89.6 °F - 50.0 °F 26% 29.77 in - NNW 9.2 mph 20.7 mph N/A   Mostly Cloudy
9:30 PM 87.8 °F - 50.0 °F 27% 29.77 in - NW 9.2 mph 20.7 mph N/A   Mostly Cloudy
10:00 PM 87.8 °F - 50.0 °F 27% 29.80 in - NW 9.2 mph 20.7 mph N/A   Mostly Cloudy
10:30 PM 87.8 °F - 50.0 °F 27% 29.77 in 2.2 mi NW 11.5 mph - N/A   Mostly Cloudy
11:00 PM 86.0 °F - 50.0 °F 29% 29.77 in 2.2 mi NW 11.5 mph - N/A   Mostly Cloudy
11:30 PM 86.0 °F - 50.0 °F 29% 29.77 in 2.2 mi NW 10.4 mph - N/A   Mostly Cloudy